Regional Weather Roundup
Issued by NWS Jackson, KY

Home | Current Version | Previous Version | Text Only | Print | Product List | Glossary Off
Versions: 1 2 3 4 5 6 7 8 9 10 11 12 13 14 15 16 17 18 19 20 21 22 23 24 25 26 27 28 29 30 31 32 33 34 35 36 37 38 39 40 41 42 43 44 45 46 47 48 49 50

148
ASUS43 KJKL 271410
RWRJKL

EAST KENTUCKY HOURLY WEATHER ROUNDUP
NATIONAL WEATHER SERVICE JACKSON KY
1000 AM EDT FRI MAY 27 2016

NOTE: "FAIR" INDICATES FEW OR NO CLOUDS BELOW 12,000 FEET WITH
NO SIGNIFICANT WEATHER AND/OR OBSTRUCTIONS TO VISIBILITY.

* THESE REPORTS ARE NOT UNDER NWS QUALITY CONTROL AND MAY NOT
  REPORT WEATHER SUCH AS PRECIPITATION AND FOG.

KYZ079-080-083-085-087-088-110-112-115-119-120-271500
...EASTERN KENTUCKY...

CITY           SKY/WX    TMP DP  RH WIND       PRES   REMARKS
JACKSON        SUNNY     74  64  71 VRB5      30.11S
LONDON         SUNNY     76  64  66 S8        30.11S
SOMERSET*      SUNNY     72  63  73 S6        30.11S
MONTICELLO*    SUNNY     76  68  76 E8        30.11S
WILLIAMSBURG*  SUNNY     75  66  73 SE7       30.12S
MIDDLESBORO*   SUNNY     73  66  77 CALM      30.14S
HARLAN APT*      N/A     72  63  73 CALM      30.15S
HAZARD APT*    SUNNY     75  66  73 SW6       30.11F
BLACK MTN*       N/A     72  63  73 SW1         N/A
PIKE CO APT*     N/A     73  65  78 S3        30.12S
BIG SANDY APT* SUNNY     75  65  69 SW6       30.11S
MOREHEAD APT*  MOSUNNY   75  66  73 S6        30.10S
ASHLAND*       MOSUNNY   73  68  83 SE6       30.06S
$$

KYZ035-036-041-042-044-050-067-078-099-271500
...CENTRAL KENTUCKY...

CITY           SKY/WX    TMP DP  RH WIND       PRES   REMARKS
MT STERLING*   SUNNY     75  66  73 W8        30.09S
FLEMING/MASON* SUNNY    N/A N/A N/A SW8       30.08S
DANVILLE*      SUNNY     73  64  73 S9        30.09S
RICHMOND*      SUNNY     75  64  69 S10       30.08S
LEXINGTON      SUNNY     75  66  73 S9        30.07S
FRANKFORT      SUNNY     75  66  73 S7        30.05S
LOUISVILLE     PTSUNNY   73  65  75 S8        30.03S
LEBANON*         N/A     75  66  73 S8        30.06S
GLASGOW*       CLOUDY    76  64  66 S8        30.05S
BOWLING GREEN  SUNNY     77  66  68 S12       30.04S
$$

KYZ091>093-OHZ055-061-077-WVZ005-015-034-035-042-271500
...SOUTHERN OHIO/WEST VIRGINIA...

CITY           SKY/WX    TMP DP  RH WIND       PRES   REMARKS
COVINGTON      PTSUNNY   74  66  76 S6        30.04F
COLUMBUS       CLOUDY    73  63  70 SW9       30.04S
DAYTON         MOSUNNY   72  64  76 SW7       30.05F
WILMINGTON     SUNNY     74  65  73 SW12      30.05S
HUNTINGTON     PTSUNNY   72  67  84 SE5       30.08S
CHARLESTON     PTSUNNY   76  63  64 CALM      30.10S
PINEVILLE*       N/A     73  58  60 MISG      30.20S
BECKLEY          N/A     74  58  57 VRB5      30.19R
BLUEFIELD        N/A     72  56  57 SW3       30.22R
LOGAN CO APT*    N/A     75  63  64 CALM      30.13S
$$

VAZ002-007-008-TNZ017-027-036-066-071-271500
...SOUTHWEST VIRGINIA/EAST TENNESSEE...

CITY           SKY/WX    TMP DP  RH WIND       PRES   REMARKS
WISE*            N/A     73  55  53 SW6       30.21S
JONESVILLE*      N/A     73  64  73 CALM      30.17S
ABINGDON*        N/A     76  65  67 E3        30.18S
BRISTOL        MOSUNNY   73  63  70 CALM      30.16S
SEVIERVILLE*   MOSUNNY   70  63  78 CALM      30.13S
KNOXVILLE      PTSUNNY   74  65  73 NE3       30.12S
OAK RIDGE      SUNNY     75  64  68 CALM      30.13F
CROSSVILLE     SUNNY     76  63  64 S7        30.14F
NASHVILLE      CLOUDY    76  64  66 S5        30.06R
$$

...KEY TO REMARKS...
VSB - VISIBILITY IN MILES
WCI - WIND CHILL INDEX
HX  - HEAT INDEX

$$




USA.gov is the U.S. government's official web portal to all federal, state and local government web resources and services.